Location: Darlington Observatory
(36.4817°N, 105.8156°W)
Time: 22:03:32
(UTC-06:00)

MOS 1 - Visible Passes

Search period start: 31 October 2014 00:00
Search period end: 09 November 2014 23:00
Orbit: 879 x 893 km, 99.2° (Epoch: 31 October)

Date Brightness Start Highest point End Pass type
(mag) Time Alt. Az. Time Alt. Az. Time Alt. Az.
31 Oct 6.0 05:04:58 10° NE 05:09:56 31° E 05:14:53 10° SSE visible
31 Oct 4.9 06:46:14 10° N 06:51:12 33° WNW 06:56:10 10° SW visible
01 Nov 6.1 05:03:26 10° NE 05:08:21 30° E 05:13:15 10° SSE visible
01 Nov 4.9 06:44:38 10° N 06:49:39 34° WNW 06:54:39 10° SW visible
02 Nov 6.2 04:01:54 10° NE 04:06:46 29° E 04:11:36 10° SSE visible
02 Nov 4.9 05:43:01 10° N 05:48:05 35° WNW 05:53:09 10° SW visible
03 Nov 6.2 04:00:23 10° NE 04:05:11 28° E 04:09:57 10° SSE visible
03 Nov 4.8 05:41:25 10° N 05:46:31 36° WNW 05:51:38 10° SW visible
04 Nov 6.3 03:58:51 10° NE 04:03:35 27° E 04:08:19 10° SSE visible
04 Nov 4.8 05:39:48 10° N 05:44:57 37° WNW 05:50:06 10° SW visible
05 Nov 6.3 03:57:20 10° NE 04:02:00 26° E 04:06:39 10° SSE visible
05 Nov 4.7 05:38:12 10° N 05:43:24 39° WNW 05:48:35 10° SW visible
06 Nov 6.4 03:55:49 10° NE 04:00:25 25° E 04:05:00 10° SSE visible
06 Nov 4.7 05:36:36 10° N 05:41:50 40° WNW 05:47:04 10° SW visible
07 Nov 6.4 03:54:18 10° NE 03:58:50 24° E 04:03:21 10° SSE visible
07 Nov 4.7 05:35:00 10° N 05:40:16 41° WNW 05:45:32 10° SW visible
08 Nov 6.5 03:52:47 10° NE 03:57:15 23° E 04:01:41 10° SSE visible
08 Nov 4.6 05:33:23 10° N 05:38:42 43° WNW 05:44:01 10° SW visible
09 Nov 6.5 03:51:16 10° NE 03:55:39 23° E 04:00:01 10° SE visible
09 Nov 4.6 05:31:47 10° N 05:37:08 44° WNW 05:42:29 10° SW visible
